Location: Joffre
(52.3362°N, 113.5373°W)
Time: 11:06:31
(UTC+00:00)

N. Korean satellite - Pass Details

Date: 10 December 2021
Orbit: 447 x 491 km, 97.3° (Epoch: 21 January)

Event Time Altitude Azimuth Distance (km) Brightness Sun altitude
Rises 14:27:34 0° 357° (N) 2,467 9.9 -9.3°
Reaches altitude 10° 14:30:39 10° 325° (NW) 1,586 8.6 -8.9°
Maximum altitude 14:32:00 12° 301° (WNW) 1,462 8.3 -8.7°
Enters shadow 14:32:08 12° 299° (WNW) 1,463 8.3 -8.7°
Exits shadow 14:35:24 - 253° (WSW) 2,103 9.4 -8.3°
Sets 14:36:25 0° 246° (WSW) 2,451 9.8 -8.1°
